{"data":{"norad_id":62044,"epoch":"2026-05-25T04:36:03.307680Z","epoch_age_seconds":54337,"freshness":"FRESH","line1":"1 62044U 24216N   26145.19170495  .00014864  00000+0  54846-3 0  9997","line2":"2 62044  43.0003 191.3749 0001750 261.3413  98.7241 15.27586657 85506","mean_motion":15.27586657,"eccentricity":0.000175,"inclination_deg":43.0003,"raan_deg":191.3749,"arg_perigee_deg":261.3413,"mean_anomaly_deg":98.7241,"bstar":0.00054846,"rev_number":8550,"period_min":94.2663379129,"perigee_km":481.82845858073,"apogee_km":484.22986673766,"semimajor_km":6861.1661626592,"source":"CELESTRAK","updated_at":"2026-05-25T13:38:19.526275Z"}}